Regional Weather Roundup
Issued by NWS State College, PA

Current Version | Previous Version | Text Only | Print | Product List | Glossary On
Versions: 1 2 3 4 5 6 7 8 9 10 11 12 13 14 15 16 17 18 19 20 21 22 23 24 25 26 27 28 29 30 31 32 33 34 35 36 37 38 39 40 41 42 43 44 45 46 47 48 49 50
000
ASUS41 KCTP 170910
RWRCTP

REGIONAL WEATHER ROUNDUP
NATIONAL WEATHER SERVICE STATE COLLEGE PA
500 AM EDT THU APR 17 2014

Note: "fair" indicates few or no clouds below 12,000 feet with no
significant weather and/or obstructions to visibility.

* = STATION THAT DOES NOT REPORT PRECIPITATION /E.G. RAIN...SNOW...ETC/
    THUNDER OR FOG.

PAZ002>004-007>009-013>016-020>023-029>032-171000-
WESTERN PENNSYLVANIA

CITY           SKY/WX    TMP DP  RH WIND       PRES   REMARKS
ERIE           CLEAR     37  15  40 SE9       30.41F
MEADVILLE      NOT AVBL
FRANKLIN*      PTCLDY    34  14  44 SE12G18   30.42S
NEW CASTLE     FAIR      35  15  44 SE10      30.42R
BEAVER COUNTY  NOT AVBL
BUTLER*        CLEAR     34  16  47 E10       30.42F
PITTSBURGH INT MOCLDY    37  17  44 SE10      30.40R
PITTSBURGH     CLEAR     37  16  42 SE8       30.40R
INDIANA*       CLEAR     36  16  44 E7G16     30.45S
LATROBE        CLEAR     37  18  44 E8G17     30.43S
WASHINGTON CO* CLEAR     32  16  51 E3        30.41S
$$

PAZ004>006-010>012-017>019-024>028-033>037-041-042-045-046-049>053-171000-
CENTRAL PENNSYLVANIA

CITY           SKY/WX    TMP DP  RH WIND       PRES   REMARKS
BRADFORD       CLEAR     27  13  55 SE8       30.43F
DUBOIS         CLEAR     31  15  52 SE9       30.44R
CLEARFIELD     CLEAR     28  16  60 NE8       30.49F
JOHNSTOWN      CLEAR     29  13  51 SE7       30.42S
ALTOONA        CLEAR     33  17  51 E8        30.50S
STATE COLLEGE  CLEAR     32  11  42 E5        30.52F
WILLIAMSPORT   CLEAR     28  20  71 N3        30.58S
SELINSGROVE    CLEAR     26  22  84 NW5       30.58S
FT INDIANTOWN  NOT AVBL
CAPITAL CITY   CLEAR     34  19  54 E8        30.58S
HARRISBURG     PTCLDY    34  19  54 CALM      30.58R
YORK           CLEAR     26  23  88 CALM      30.57R
$$

PAZ038>040-043-044-047-048-054-055-060>062-067>071-171000-
EASTERN PENNSYLVANIA

CITY           SKY/WX    TMP DP  RH WIND       PRES   REMARKS
SCRANTON       PTCLDY    29  18  63 NE5       30.57S
MOUNT POCONO   CLEAR     27  13  55 E8        30.53S
ALLENTOWN      CLEAR     29  18  63 NE7       30.60S
QUAKERTOWN*    CLEAR     30  18  59 NE3       30.60S
READING        CLEAR     32  19  58 N5        30.59R
LANCASTER      CLEAR     30  19  63 E7        30.57S
COATESVILLE    NOT AVBL
POTTSTOWN      CLEAR     32  19  58 NE8       30.60S
BLUE BELL      CLEAR     34  19  55 NE3       30.58S
DOYLESTOWN     CLEAR     32  18  56 NE6       30.58F
WILLOW GROVE   NOT AVBL
NORTH PHILA    CLEAR     33  18  53 NE8       30.61S
PHILADELPHIA   CLEAR     37  17  44 NE9       30.61R
$$



USA.gov is the U.S. government's official web portal to all federal, state and local government web resources and services.